| time (UTC) | temp C | wind direction | speed KPH | gust KPH | rain 1hr cm | rain 24hr cm | rain mn cm | humidity % | barometer mb |
| 20260504223005 | 17 | 201 | 3.2 | 17.7 | 0.00 | 0.00 | 0.00 | 46 | 1006.9 |
| 20260504221546 | 18 | 158 | 1.6 | 16.1 | 0.00 | 0.00 | 0.00 | 44 | 1006.8 |
| 20260504220045 | 19 | 194 | 3.2 | 12.9 | 0.00 | 0.00 | 0.00 | 39 | 1006.7 |
| 20260504214530 | 20 | 217 | 0.0 | 12.9 | 0.00 | 0.00 | 0.00 | 38 | 1006.6 |
| 20260504213026 | 20 | 203 | 1.6 | 14.5 | 0.00 | 0.00 | 0.00 | 36 | 1006.6 |
| 20260504211507 | 20 | 226 | 1.6 | 8.0 | 0.00 | 0.00 | 0.00 | 35 | 1006.5 |
| 20260504210006 | 20 | 231 | 3.2 | 12.9 | 0.00 | 0.00 | 0.00 | 34 | 1006.6 |
| 20260504204556 | 21 | 150 | 3.2 | 14.5 | 0.00 | 0.00 | 0.00 | 33 | 1006.6 |
| 20260504203102 | 22 | 198 | 0.0 | 11.3 | 0.00 | 0.00 | 0.00 | 34 | 1006.6 |
| 20260504201530 | 22 | 205 | 0.0 | 8.0 | 0.00 | 0.00 | 0.00 | 35 | 1006.7 |
| 20260504200026 | 22 | 157 | 3.2 | 9.7 | 0.00 | 0.00 | 0.00 | 33 | 1006.8 |
| 20260504194507 | 21 | 112 | 1.6 | 12.9 | 0.00 | 0.00 | 0.00 | 34 | 1006.9 |
| 20260504193012 | 21 | 181 | 0.0 | 14.5 | 0.00 | 0.00 | 0.00 | 34 | 1006.9 |
| 20260504191546 | 21 | 205 | 0.0 | 12.9 | 0.00 | 0.00 | 0.00 | 34 | 1006.9 |
| 20260504190106 | 21 | 158 | 0.0 | 17.7 | 0.00 | 0.00 | 0.00 | 34 | 1007.0 |
| 20260504184527 | 21 | 295 | 0.0 | 12.9 | 0.00 | 0.00 | 0.00 | 34 | 1007.2 |
| 20260504183030 | 21 | 140 | 0.0 | 11.3 | 0.00 | 0.00 | 0.00 | 31 | 1007.5 |
| 20260504181503 | 20 | 131 | 0.0 | 16.1 | 0.00 | 0.00 | 0.00 | 32 | 1007.6 |
| 20260504180101 | 20 | 147 | 4.8 | 16.1 | 0.00 | 0.00 | 0.00 | 31 | 1007.6 |
| 20260504174541 | 20 | 159 | 1.6 | 12.9 | 0.00 | 0.00 | 0.00 | 33 | 1007.9 |
| 20260504173039 | 20 | 193 | 1.6 | 12.9 | 0.00 | 0.00 | 0.00 | 35 | 1007.9 |
| 20260504171526 | 20 | 215 | 6.4 | 20.9 | 0.00 | 0.00 | 0.00 | 33 | 1008.0 |
| 20260504081600 | 5 | 136 | 0.0 | 1.6 | 0.00 | 0.00 | 0.00 | 66 | 1010.2 |
| 20260504044545 | 5 | 165 | 0.0 | 1.6 | 0.00 | 0.00 | 0.00 | 63 | 1010.2 |
| 20260504043026 | 5 | 145 | 0.0 | 1.6 | 0.00 | 0.00 | 0.00 | 63 | 1010.3 |
| 20260504041523 | 5 | 135 | 0.0 | 1.6 | 0.00 | 0.00 | 0.00 | 65 | 1010.3 |
| 20260504040006 | 4 | 135 | 0.0 | 1.6 | 0.00 | 0.00 | 0.00 | 65 | 1010.1 |
| 20260504034505 | 4 | 136 | 0.0 | 1.6 | 0.00 | 0.00 | 0.00 | 64 | 1010.1 |
| 20260504033054 | 5 | 137 | 0.0 | 1.6 | 0.00 | 0.00 | 0.00 | 59 | 1009.9 |
| 20260504031555 | 5 | 128 | 0.0 | 1.6 | 0.00 | 0.00 | 0.00 | 58 | 1009.9 |
| 20260504030027 | 5 | 143 | 0.0 | 1.6 | 0.00 | 0.00 | 0.00 | 58 | 1009.7 |
| 20260504024526 | 5 | 129 | 0.0 | 1.6 | 0.00 | 0.00 | 0.00 | 59 | 1009.7 |
| 20260504023008 | 5 | 145 | 0.0 | 1.6 | 0.00 | 0.00 | 0.00 | 59 | 1009.6 |
| 20260504021507 | 6 | 174 | 0.0 | 1.6 | 0.00 | 0.00 | 0.00 | 56 | 1009.5 |
| 20260504020048 | 5 | 167 | 0.0 | 1.6 | 0.00 | 0.00 | 0.00 | 58 | 1009.4 |
| 20260504014556 | 5 | 131 | 0.0 | 1.6 | 0.00 | 0.00 | 0.00 | 58 | 1009.3 |
| 20260504013034 | 5 | 138 | 0.0 | 1.6 | 0.00 | 0.00 | 0.00 | 57 | 1009.2 |
| 20260504011527 | 6 | 141 | 0.0 | 1.6 | 0.00 | 0.00 | 0.00 | 57 | 1009.0 |
| 20260504010008 | 6 | 141 | 0.0 | 1.6 | 0.00 | 0.00 | 0.00 | 55 | 1008.9 |
| 20260504004506 | 6 | 139 | 0.0 | 1.6 | 0.00 | 0.00 | 0.00 | 55 | 1008.6 |
| 20260504003046 | 6 | 141 | 0.0 | 0.0 | 0.00 | 0.00 | 0.00 | 55 | 1008.5 |
| 20260504001556 | 6 | 193 | 0.0 | 1.6 | 0.00 | 0.00 | 0.00 | 53 | 1008.3 |
| 20260504000039 | 7 | 194 | 0.0 | 0.0 | 0.00 | 0.00 | 0.00 | 51 | 1008.2 |
| 20260503234526 | 8 | 193 | 0.0 | 1.6 | 0.00 | 0.00 | 0.00 | 48 | 1008.2 |
| 20260503233008 | 8 | 113 | 0.0 | 1.6 | 0.00 | 0.00 | 0.00 | 47 | 1008.1 |
| 20260503231506 | 8 | 339 | 0.0 | 1.6 | 0.00 | 0.00 | 0.00 | 45 | 1008.0 |
| 20260503230048 | 9 | 167 | 0.0 | 8.0 | 0.00 | 0.00 | 0.00 | 44 | 1007.9 |
| 20260503224547 | 10 | 141 | 0.0 | 14.5 | 0.00 | 0.00 | 0.00 | 43 | 1007.7 |